Погода в Абагайтуе

Россия / Забайкальский край     49°35′05″N   117°50′05″E
темп.,
°C
ветер,
м/с
пор.,
м/с
влажн.,
%
обл.,
%
осадки,
мм/ч
давл.,
гПа
погр.,
м
27 ноября, сб
сб2700:00−14св229743 0.0 102617
03:00−14св229775 0.0 102617
06:00−14св2297100 0.0 102429
09:00−14ссв229865 0.0 102524
12:00−9ссв23846 0.0 1024151
15:00−7ссв227890 0.0 1022191
18:00−11ссз22905 0.0 102511
21:00−13сз22945 0.0 102612
28 ноября, вс
вс2800:00−14сз229478 0.0 102812
03:00−14сз2294100 0.0 102813
06:00−13сз2293100 0.0 102815
09:00−11зсз2291100 0.0 102936
12:00−8сз2389100 0.1 1028220
15:00−6сз4791100 0.5 1027496
18:00−8сз51074100 0.1 1029435
21:00−12зсз48875 0.1 1031150
29 ноября, пн
пн2900:00−14зсз46885 0.0 103383
03:00−15зсз35885 0.0 103373
06:00−16зсз35875 0.0 103365
09:00−17з228858 0.0 103328
12:00−11зюз2367100 0.0 1031199
15:00−9зюз2463100 0.0 1029341
18:00−12зюз2284100 0.0 102917
21:00−12з2285100 0.0 102937
30 ноября, вт
вт3000:00−15з22925 0.0 103023
03:00−15з34905 0.0 102949
06:00−15з37915 0.0 1028113
09:00−16зсз37915 0.0 1029110
12:00−10зсз611795 0.0 1027406
15:00−9зсз611785 0.0 1025509
18:00−12зсз513865 0.0 1025306
21:00−14зсз34905 0.0 102649
1 декабря, ср
ср100:00−15зсз32915 0.0 102637
03:00−15зсз22925 0.0 102624
06:00−16з22935 0.0 102518
09:00−17зюз22955 0.0 102414
12:00−10юз237976 0.0 1019158
15:00−7юз497487 0.0 1014415
18:00−6зюз51179100 0.0 1010322
21:00−5з9178222 0.0 1005552